Regional Weather Roundup
Issued by NWS

Home | Current Version | Previous Version | Graphics & Text | Print | Product List | Glossary On
Versions: 1 2 3 4 5 6 7 8 9 10 11 12 13 14 15 16 17 18 19 20 21 22 23 24 25 26 27 28 29 30 31 32 33 34 35 36 37 38 39 40 41 42 43 44 45 46 47 48 49 50
000
ASUS43 KFSD 010910
RWRSD

WEATHER ROUNDUP FOR SOUTH DAKOTA
NATIONAL WEATHER SERVICE SIOUX FALLS SD
300 AM CST SUN FEB 01 2015

NOTE: "FAIR" INDICATES FEW OR NO CLOUDS BELOW 12,000 FEET WITH NO
SIGNIFICANT WEATHER AND/OR OBSTRUCTIONS TO VISIBILITY.


SDZ001>005-009-010-012>017-011000-
NORTHWEST AND NORTH CENTRAL SOUTH DAKOTA

CITY           SKY/WX    TMP DP  RH WIND       PRES   REMARKS
BUFFALO          N/A     -1  -6  79 NW5       30.23R WCI -11
FAITH            N/A      0  -5  79 N17       30.29R WCI -21
MOBRIDGE       LGT SNOW   0  -7  72 N17       30.34R WCI -21
$$

SDZ012>016-024>037-041>051-057-063-072>074-011000-
SOUTHWEST AND SOUTH CENTRAL SOUTH DAKOTA

CITY           SKY/WX    TMP DP  RH WIND       PRES   REMARKS
RAPID CTY ARPT CLOUDY     6   2  83 N14       30.23R WCI -11
PIERRE         LGT SNOW   5   1  83 N16       30.28R FOG     WCI -14
CUSTER         CLOUDY    14   9  80 CALM      29.98R
ELLSWORTH AFB  MIX PCPN   6   2  85 N10       30.23  WCI  -9
PHILIP         FLURRIES   6   0  76 N13       30.28R WCI -10
PINE RIDGE     CLOUDY    10   4  76 N8        30.15R WCI  -2
WINNER         LGT SNOW   7   3  84 N17       30.20R VSB 1   WCI -12
$$

SDZ004>011-016>023-039-040-011000-
NORTHEAST SOUTH DAKOTA

CITY           SKY/WX    TMP DP  RH WIND       PRES   REMARKS
ABERDEEN       LGT SNOW   1  -7  68 N23G30    30.35R WCI -22
WATERTOWN      LGT SNOW   3  -3  76 N18G30    30.18S WCI -17
SISSETON         N/A      0  -6  76 N23       30.34R WCI -23
$$

SDZ017-020-022-023-036>040-048>070-011000-
SOUTHEAST SOUTH DAKOTA

CITY           SKY/WX    TMP DP  RH WIND       PRES   REMARKS
SIOUX FALLS    LGT SNOW  18  14  84 NE24G37   30.04S FOG     WCI   0
HURON          LGT SNOW   3  -1  83 N24G31    30.24R FOG     WCI -20
CHAMBERLAIN    LGT SNOW   4   0  82 N16G24    30.22R WCI -15
MITCHELL       LGT SNOW  10   7  87 N22       30.18R VSB 1   WCI -10
YANKTON        CLOUDY    21  18  86 N23       30.05R WCI   5
$$

ABBREVIATIONS USED IN REMARKS
   TC - TEMPERATURE IN CELSIUS
  WCI - WIND CHILL INDEX
   HX - HEAT INDEX
  VSB - VISIBILITY



USA.gov is the U.S. government's official web portal to all federal, state and local government web resources and services.